www.pogodaiklimat.ru

АРХИВ ПОГОДЫ в Далласе

Время (UTC), дата Ветер
(напр.,м/с)
 
Видим.   Явления Облачность Т
(С)
Тd
(С)
f
(%)
Тe
(С)
Тes
(С)
Комфортность

P
(гПа)

Po
(гПа)
Тmin
(С)
Tmax
(С)
R
(мм)
SD
(см)
16:53 24.03 ЮЗ  16 км    8/8 1020 м
[верхняя] 
+25.0  +15.6  56  +28  +29  жарко  1015.6  996.4  +15.6  +25.6     
17:53 24.03 Ю  6
{10} 
16 км    8/5 1110 м
[верхняя] 
+27.2  +16.1  51  +31  +33  душно  1014.6  995.7         
18:53 24.03 Ю  16 км    8/8 1200 м
[верхняя] 
+27.2  +15.6  49  +30  +31  душно  1013.7  994.7         
19:53 24.03 Ю  6
{9} 
16 км    8/8 1470 м
[средняя верхняя] 
+26.7  +15.6  51  +30  +30  душно  1013.2           
20:53 24.03 Ю  16 км    8/5 1500 м
[средняя верхняя] 
+27.2  +16.1  51  +31  +31  душно  1012.7           
21:53 24.03 Ю  9
{13} 
16 км    8/2 1650 м
[средняя верхняя] 
+26.1  +16.1  54  +29  +29  жарко  1011.9  992.8         
22:53 24.03 Ю  16 км    5/2 1650 м
[средняя верхняя] 
+25.6  +16.7  58  +29  +29  душно  1011.8  992.8  +25.0  +28.3     
23:39 24.03 Ю  8
{11} 
16 км  гроза  8/5 1650 м
[средняя верхняя] 
+24.4  +16.1  60  +28  +28  душно             
23:53 24.03 Ю  16 км  гроза  8/5 1650 м
[средняя верхняя] 
+24.4  +16.1  60  +28  +28  душно  1012.5  993.4         
00:34 25.03 ЮЗ  16 км    8/5 1650 м
[средняя верхняя] 
+22.2  +17.8  76  +27  +27  душно    994.1         
00:53 25.03 ЮЗ  16 км    8/5 1650 м
[средняя верхняя] 
+22.8  +17.2  71  +28  +28  душно  1013.6  994.4         
01:53 25.03 ЮЗ  16 км  гроза, слабый дождь  8/5 1440 м
[средняя верхняя] 
+21.7  +17.8  78  +26  +26  душно  1014.4  995.1      1.8   
02:10 25.03 ЮЗ  5 км  гроза с дождем  8/5 1350 м
[средняя верхняя] 
+22.2  +17.2  73  +27  +27  душно    996.1         
02:14 25.03 З  7
{10} 
3 км  гроза с сильным градом и дождем  8/5 1350 м
[средняя верхняя] 
+20.6  +17.2  81  +24  +24  комфорт    995.7         
02:21 25.03 З  5 км  -TSGRRA, дымка  8/5 1350 м
[средняя верхняя] 
+19.4  +17.8  90  +21  +21  комфорт    995.7         
02:28 25.03 З  16 км  гроза со слабым дождем  8/5 930 м
[средняя верхняя] 
+20.6  +17.8  84  +24  +24  комфорт    995.7         
02:35 25.03 З  16 км  гроза  8/5 930 м
[средняя верхняя] 
+20.6  +17.2  81  +24  +24  комфорт    995.7         
02:53 25.03 ЮЗ  16 км    8/2 660 м
[средняя верхняя] 
+20.0  +16.7  81  +23  +23  комфорт  1014.7  995.4         
03:53 25.03 СЗ  16 км    8/8 1440 м
[средняя] 
+20.0  +15.0  73  +22  +22  комфорт  1015.2  996.1         
04:23 25.03 С  10  10 км  гроза со слабым дождем  10/10 1380 м  +18.3  +14.4  78  +17  +17      997.1         
04:32 25.03 С  3 км  гроза с дождем, дымка  10/10 930 м  +16.7  +15.0  90  +15  +15               
04:43 25.03 СЗ  10 км  гроза со слабым дождем  8/8 1080 м  +17.8  +16.1  90  +17  +17      996.4         
04:53 25.03 С  16 км    8/8 960 м  +17.2  +15.6  90  +16  +16    1015.8  996.7  +16.7  +25.6  10.2   
05:53 25.03 С  16 км    8/8 1950 м
[средняя] 
+16.7  +12.8  78  +15  +15    1015.8  996.7         
06:53 25.03 С  16 км    2/2 1800 м  +15.0  +11.7  81  +13  +13    1015.4  996.4         
07:53 25.03 СВ  16 км    2/2 1800 м  +14.4  +10.6  78  +13  +13    1016.2  997.1         
08:53 25.03 С  16 км    2/2 1800 м  +13.9  +10.0  77  +12  +12    1017.1  998.1         
09:53 25.03 С  16 км    8/8 1800 м  +13.3  +9.4  77  +11  +11    1018.1  999.1         
10:53 25.03 С  16 км    2/2 1800 м  +12.2  +8.9  80  +10  +10    1019.1  999.7  +12.2  +17.2     
11:53 25.03 С  16 км    2/2 1800 м  +11.7  +8.9  83  +10  +10    1019.4  1000.1         
12:53 25.03 С  16 км    2/2 1800 м  +13.9  +8.9  72  +12  +12    1020.2  1000.7         
13:53 25.03 С  16 км    2/2 1800 м  +15.6  +8.9  64  +14  +14    1021.3  1002.1         
14:53 25.03 С  16 км    ясно  +17.8  +8.9  56  +17  +18    1022.3  1003.0         
15:53 25.03 С  16 км    2/0 7500 м
[верхняя] 
+18.3  +8.3  52  +18  +19    1022.7  1003.4         
16:53 25.03 СВ  16 км    2/2 1200 м
[верхняя] 
+19.4  +8.3  49  +20  +21    1022.8  1003.4  +11.7  +19.4     
17:53 25.03 С  4
{10} 
16 км    2/2 1200 м
[верхняя] 
+20.0  +8.3  47  +21  +28  комфорт  1022.4  1003.0         
18:53 25.03 С  16 км    2/0 9000 м
[верхняя] 
+21.1  +8.3  44  +22  +27  комфорт  1021.9  1002.4         
19:53 25.03 С  5
{8} 
16 км    2/0 9000 м
[верхняя] 
+21.7  +8.9  44  +23  +28  комфорт  1021.2  1001.7         
20:53 25.03 С  16 км    ясно  +21.7  +8.3  42  +23  +26  комфорт  1020.9  1001.4         
21:53 25.03 С  16 км    2/0 9000 м
[верхняя] 
+21.7  +7.8  41  +23  +24  комфорт  1021.0  1001.7         
22:53 25.03 С  16 км    2/0 9000 м
[верхняя] 
+20.6  +7.8  44  +22  +22  комфорт  1021.4  1002.1  +19.4  +22.2     
23:53 25.03 С  16 км    2/0 9000 м
[верхняя] 
+18.3  +7.8  50  +18  +18    1021.7  1002.1         
00:53 26.03 С  16 км    ясно  +17.2  +7.8  54  +17  +17    1022.0  1002.4         
01:53 26.03 С  16 км    ясно  +16.7  +8.3  58  +16  +16    1022.9  1003.4         
02:53 26.03 С  16 км    ясно  +15.6  +8.3  62  +14  +14    1023.7  1004.0         
03:53 26.03 С  16 км    ясно  +15.0  +7.8  62  +13  +13    1024.2  1004.7         
04:53 26.03 С  16 км    ясно  +13.9  +8.3  69  +12  +12    1024.6  1005.0  +13.9  +20.6     
05:53 26.03 СВ  16 км    ясно  +12.8  +7.8  72  +11  +11    1025.0  1005.4         

 

Местоположение метеостанции Dallas / Fort Worth International Airport: широта 32.8974 долгота -97.0220 высота над уровнем моря 165 м.

В архиве по умолчанию представлена погода в Далласе за последние 1-2 суток. Обновление информации о фактической погоде в базе происходит ежечасно! Архивные данные за месяц целиком и за предыдущие месяцы Вы можете получить, выбрав интересующий диапазон дат из раскрывающегося списка и нажав кнопку "Ввод!".

Внимание! Архив погоды МЕТАР в базе сайта в настоящее время начинается c 1 января 2011 г. Нет смысла пытаться выбрать более раннюю дату.

Внимание! Время в таблицах - всемирное. Для получения местного времени необходимо прибавить поправку, которая в Далласе равна -6 ч.

Ветер - указаны скорость ветра в м/с и направление, откуда дует ветер: С - северный, СВ - северо-восточный, В - восточный, ЮВ - юго-восточный, Ю - южный, ЮЗ - юго-западный, З - западный, СЗ - северо-западный.
Видимость - горизонтальная дальность видимости в метрах или километрах. При видимости от 1 до 10 км при отсутствии осадков обычно наблюдается дымка, при ухудшении видимости до 1 км и менее - туман. В сухую погоду видимость может ухудшаться дымом, пылью или мглою.
Атмосферные явления - указаны явления, наблюдавшиеся в указанный момент времени.
Облачность - указаны через наклонную черту верхняя и нижняя облачность в баллах и высота нижней границы облаков в метрах. Внимание: облачность, как и прочие метеорологические величины в США измеряются автоматическими метеостанциями. Указанные значения в баллах носят условный характер и показывают процент времени, в течение которого, в среднем, лазерный луч высотомера отражался от облаков обратно.
T - Температура воздуха - температура, измеренная на высоте 2 м над землей.
Td - Температура точки росы - температура, при понижении до которой содержащийся в воздухе водяной пар достигнет насыщения.
f - Относительная влажность воздуха - влажноcть воздуха, измеренная на высоте 2 м над землей.
Te - Эффективная температура - температура, которую ощущает одетый по сезону человек в тени. Характеристика душности погоды. При расчете учитывается влияние влажности воздуха и скорости ветра на теплоощущения человека.
Tes - Эффективная температура на солнце - температура, которую ощущает человек, с поправкой на солнечный нагрев. Характеристика знойности погоды. Зависит от высоты солнца над горизонтом, облачности и скорости ветра. Ночью, в пасмурную погоду, а также при ветре 12 м/с и более поправка равна нулю.
P - Атмосферное давление - приведенное к уровню моря атмосферное давление.
Po - Атмосферное давление - измеренное на уровне метеостанции атмосферное давление.
Tmin - Минимальная температура - минимум температуры воздуха на высоте 2 м над землей.
Tmax - Максимальная температура - максимум температуры воздуха на высоте 2 м над землей.
R - Количество осадков - Количество выпавших осадков за 3 или 6 часов, мм.
SD - Снежный покров - Высота снежного покрова, см.